Tracking 35274 objects as of 11-Sep-2026
HD Live streaming from Space Station
objects crossing your sky now

YUNHAI 1-02 DEB


YUNHAI 1-02 DEB is no longer on orbit


NORAD ID: 48523
Int'l Code: 2019-063AH
Launch date: September 25, 2019
Source: People's Republic of China (PRC)
Launch site: Jiuquan Satellite Launch Center, China (JSC)
Decay date: 2022-07-20

Note: This is SATELLITE DEBRIS
Your satellite tracking list
Your tracking list is empty




NASA's NSSDC Master Catalog

Two Line Element Set (TLE):
1 48523U 19063AH  21131.30112789  .00081894  00000-0  35885-1 0  9990
2 48523  98.6519 157.0312 0169868 300.6513  57.9167 14.15738007  5665
Source of the keplerian elements: AFSPC